• Join FlightAware (Why Join?)
  • Login
  • US Flag 
04:42AM EDT


 

Airport Tracker/Info


-or-


 

Live Flight TrackerFlight Track Log ✈ SNC1611 ✈ 26-Aug-2013 ✈ KDNV - KSDF

Flight Track Log - Related Links

Times and Time Zones

All times are in EDT time to prevent confusion due to time zone crossing. See the SNC1611 flight status page for this flight to view local times or setup timezone preferences in your user account.

Time Position Orientation Groundspeed Altitude Reporting Facility
EDT Latitude Longitude Course Direction KTS MPH feet Rate Location/Type
11:59PM 40.0711 -87.4800 159° South 149 171 4,200  Level Indianapolis Center
12:00AM 40.0383 -87.4439 140° Southeast 151 174 4,900 660 Climbing Indianapolis Center
12:01AM 40.0014 -87.4100 145° Southeast 159 183 5,600 660 Climbing Indianapolis Center
12:02AM 39.9650 -87.3797 147° Southeast 157 181 6,300 660 Climbing Indianapolis Center
12:03AM 39.9303 -87.3433 141° Southeast 160 184 7,000 600 Climbing Indianapolis Center
12:04AM 40.0319 -87.4363 159° South  Level Estimated
12:04AM 39.8942 -87.3142 148° Southeast 155 178 7,600  Level Indianapolis Center
12:05AM 39.8567 -87.2883 152° Southeast 154 177 8,100 480 Climbing Indianapolis Center
12:06AM 39.8211 -87.2589 148° Southeast 153 176 8,600 300 Climbing Indianapolis Center
12:08AM 39.7333 -87.2000 153° Southeast 180 207 9,000 120 Climbing Indianapolis TRACON
12:09AM 39.6950 -87.1575 140° Southeast 187 215 9,000  Level Indianapolis Center
12:10AM 39.6500 -87.1139 143° Southeast 198 228 9,000  Level Indianapolis Center
12:11AM 39.6075 -87.0669 140° Southeast 201 231 9,000  Level Indianapolis Center
12:12AM 39.5642 -87.0197 140° Southeast 203 234 9,000  Level Indianapolis Center
12:13AM 39.5106 -86.9672 143° Southeast 202 232 9,000  Level Indianapolis Center
12:14AM 39.4644 -86.9256 145° Southeast 203 234 9,000  Level Indianapolis Center
12:15AM 39.4192 -86.8819 143° Southeast 203 234 9,000 -60 Level Indianapolis Center
12:16AM 39.3711 -86.8389 145° Southeast 208 239 8,900 -300 Descending Indianapolis Center
12:17AM 39.3258 -86.7942 143° Southeast 207 238 8,400 -600 Descending Indianapolis Center
12:18AM 39.2808 -86.7403 137° Southeast 216 249 7,800 -660 Descending Indianapolis Center
12:19AM 39.2342 -86.6878 139° Southeast 223 257 7,100 -420 Descending Indianapolis Center
12:20AM 39.1844 -86.6456 147° Southeast 221 254 7,000 -60 Descending Indianapolis Center
12:21AM 39.1350 -86.6139 154° Southeast 212 244 7,000  Level Indianapolis Center
12:22AM 39.0881 -86.5694 144° Southeast 204 235 7,000  Level Indianapolis Center
12:23AM 39.0428 -86.5261 143° Southeast 204 235 7,000  Level Indianapolis Center
12:24AM 38.9986 -86.4800 141° Southeast 205 236 7,000  Level Indianapolis Center
12:25AM 38.9556 -86.4314 139° Southeast 205 236 7,000  Level Indianapolis Center
12:26AM 38.9114 -86.3861 141° Southeast 206 237 7,000  Level Indianapolis Center
12:27AM 38.8653 -86.3406 142° Southeast 207 238 7,000  Level Indianapolis Center
12:28AM 38.8236 -86.2911 137° Southeast 205 236 7,000  Level Indianapolis Center
12:29AM 38.7803 -86.2419 139° Southeast 205 236 7,000  Level Indianapolis Center
12:30AM 38.7386 -86.1906 136° Southeast 205 236 7,000 -60 Level Indianapolis Center
12:31AM 38.7058 -86.1292 124° Southeast 208 239 6,900  Descending Indianapolis Center
12:32AM 38.6714 -86.0708 127° Southeast 206 237 7,000  Climbing Indianapolis Center
12:33AM 38.6372 -86.0125 127° Southeast 205 236 7,000 -240 Level Indianapolis Center
12:34AM 38.6014 -85.9528 128° Southeast 209 241 6,600 -420 Descending Indianapolis Center
12:35AM 38.5558 -85.8803 129° Southeast 216 249 6,200 -300 Descending Indianapolis Center
12:36AM 38.5189 -85.8200 128° Southeast 215 247 6,000 -120 Descending Indianapolis Center
12:37AM 38.4831 -85.7636 129° Southeast 208 239 6,000  Level Indianapolis Center
12:38AM 38.4489 -85.7089 129° Southeast 201 231 6,000  Level Indianapolis Center
12:39AM 38.3947 -85.6936 168° South 199 229 6,000  Level Indianapolis Center
12:40AM 38.3411 -85.6769 166° South 197 227 6,000  Level Indianapolis Center
12:41AM 38.2878 -85.6617 167° South 196 226 6,000 -60 Level Indianapolis Center
12:42AM 38.2333 -85.6422 164° South 199 229 5,900 -300 Descending Indianapolis Center
12:43AM 38.1803 -85.6217 163° South 199 229 5,400 -480 Descending Indianapolis Center
12:44AM 38.1239 -85.5983 162° South 204 235 5,000 -300 Descending Indianapolis Center
12:45AM 38.0672 -85.5803 166° South 206 237 4,900 -300 Descending Indianapolis Center
12:46AM 38.0108 -85.5647 168° South 206 237 4,400 -480 Descending Indianapolis Center
12:47AM 37.9569 -85.5475 166° South 204 235 4,000 -360 Descending Indianapolis Center
12:48AM 37.9114 -85.5636 196° South 205 236 3,700 -300 Descending Indianapolis Center
12:49AM 37.9369 -85.6111 304° West 181 208 3,500 -300 Descending Indianapolis Center
12:50AM 37.9772 -85.6486 324° Northwest 177 204 3,200 -240 Descending Indianapolis Center
12:51AM 38.0239 -85.6747 336° Northwest 176 203 3,100 -180 Descending Indianapolis Center
12:52AM 38.0683 -85.6978 338° Northwest 177 204 2,900 -240 Descending Indianapolis Center